Location: Colonia Mina de C?rbuni
(46.1667°N, 22.7167°E)
Time: 15:00:01
(UTC+00:00)

S-56A Canister/Altair - Pass Details

Date: 17 April 2024
Orbit: 638 x 2488 km, 38.9° (Epoch: 26 May)

Event Time Altitude Azimuth Distance (km) Brightness Sun altitude
Rises 22:43:03 0° 275° (W) 4,849 11.6 -32.8°
Reaches altitude 10° 22:47:00 10° 260° (W) 4,158 11.1 -32.8°
Enters shadow 22:48:43 14° 252° (WSW) 3,948 10.9 -32.7°
